Погода в Карлскуге

Швеция     59°19′37″N   14°30′45″E
темп.,
°C
ветер,
м/с
пор.,
м/с
влажн.,
%
обл.,
%
осадки,
мм/ч
давл.,
гПа
погр.,
м
12 мая, ср
ср1223:00+10св31288100 0.0 1011377
02:00+9всв3994100 0.0 1010240
05:00+8всв41096100 0.0 1009258
08:00+11всв51289100 0.0 1007319
11:00+19вюв6116799 0.1 1006809
14:00+23юв6105589 0.2 10051361
17:00+23вюв695534 0.0 10041321
20:00+17вюв397140 0.1 1005451
13 мая, чт
чт1323:00+12вюв259567 0.0 1007106
02:00+11ю119981 0.0 100852
05:00+12в0196100 0.0 100782
08:00+13в2492100 0.1 1008258
11:00+20юв366688 0.1 10071153
14:00+21вюв4553100 0.7 10061781
17:00+21вюв463817 0.0 10061676
20:00+17вюв38561 0.0 1006325
14 мая, пт
пт1423:00+11в26796 0.0 1007131
02:00+9в28915 0.0 1007203
05:00+8всв279274 0.0 1007161
08:00+13в3568100 0.0 1007354
11:00+17всв464928 0.0 10061467
14:00+18всв3548100 0.1 10051861
17:00+14юв3576100 1.2 1006630
20:00+12с1292100 1.8 100667
15 мая, сб
сб1523:00+10в119798 2.4 100632
02:00+9св3897100 4.0 1006384
05:00+8ссв3698100 5.4 1005289
08:00+8всв3795100 7.1 1005639
11:00+7всв2595100 1.3 1005491
14:00+7всв2394100 3.8 1005352
17:00+7в2395100 0.4 1005262
20:00+8в1396100 0.4 1006258
16 мая, вс
вс1623:00+8вюв249998 0.1 1007122
02:00+8в139899 0.1 100792
05:00+7вюв119890 0.0 100848
08:00+10юв129388 0.0 1008248
11:00+13юв247668 0.6 10091012
14:00+16ююз3451100 0.7 10091582
17:00+17юз1445100 0.0 10081583
20:00+10з2592100 0.6 1010190